EW2964 Weather Reports


Display with metric or nautical units.
time (UTC)temp
F
wind
direction
speed
MPH
gust
MPH
rain 1hr
in
rain 24hr
in
rain mn
in
humidity
%
barometer
mb
20260904234516 68 265 1.0 3.0 0.00 0.74 0.64 95 1017.3
20260904234403 69 265 1.0 2.0 0.00 0.74 0.64 94 1016.4
20260904233902 69 265 2.0 3.0 0.00 0.74 0.64 93 1016.5
20260904233402 69 242 1.0 3.0 0.00 0.74 0.64 93 1016.6
20260904233041 69 242 0.0 3.0 0.00 0.74 0.64 94 1017.5
20260904232903 69 242 1.0 2.0 0.00 0.74 0.64 93 1016.8
20260904232403 70 242 1.0 3.0 0.00 0.74 0.64 92 1016.8
20260904231903 70 283 1.0 3.0 0.00 0.74 0.64 92 1017.0
20260904231533 70 252 1.0 3.0 0.00 0.74 0.64 93 1017.8
20260904231403 70 269 1.0 3.0 0.00 0.74 0.64 92 1017.0
20260904230903 70 322 1.0 2.0 0.00 0.74 0.64 92 1016.9
20260904230403 70 322 1.0 3.0 0.00 0.74 0.64 91 1016.9
20260904230030 70 322 1.0 3.0 0.00 0.74 0.64 92 1017.7
20260904225403 71 288 1.0 2.0 0.00 0.74 0.64 90 1016.8
20260904224903 70 263 2.0 6.0 0.00 0.74 0.64 90 1016.9
20260904224508 70 304 1.0 4.0 0.00 0.74 0.64 93 1017.7
20260904224402 70 304 2.0 5.0 0.00 0.74 0.64 91 1016.9
20260904223903 70 304 3.0 5.0 0.00 0.74 0.64 92 1017.0
20260904223015 69 257 0.0 1.0 0.00 0.74 0.64 94 1017.9
20260904222903 70 257 0.0 1.0 0.00 0.74 0.64 93 1017.0
20260904222403 70 257 0.0 2.0 0.00 0.74 0.64 93 1017.1
20260904221523 69 257 0.0 4.0 0.00 0.74 0.64 95 1018.1
20260904221403 69 257 0.0 2.0 0.00 0.74 0.64 94 1017.1
20260904220903 69 257 1.0 5.0 0.00 0.74 0.64 94 1017.3
20260904220035 69 156 0.0 2.0 0.00 0.74 0.64 96 1018.3
20260904215902 69 156 0.0 2.0 0.00 0.74 0.64 95 1017.5
20260904215403 69 156 1.0 2.0 0.00 0.74 0.64 95 1017.5
20260904214903 69 176 1.0 3.0 0.00 0.74 0.64 95 1017.7
20260904214532 69 300 1.0 3.0 0.00 0.74 0.64 96 1018.7
20260904214403 69 300 1.0 3.0 0.00 0.74 0.64 95 1017.8
20260904213903 69 302 0.0 3.0 0.01 0.74 0.64 95 1017.8
20260904213403 69 285 1.0 3.0 0.01 0.74 0.64 95 1017.7
20260904213022 68 300 1.0 3.0 0.01 0.74 0.64 96 1018.6
20260904212904 69 300 3.0 3.0 0.02 0.74 0.64 95 1017.7
20260904212403 69 326 2.0 3.0 0.02 0.74 0.64 95 1017.8
20260904211903 69 271 1.0 3.0 0.02 0.74 0.64 95 1018.0
20260904211519 68 304 1.0 4.0 0.04 0.74 0.64 96 1019.1
20260904210903 69 280 2.0 5.0 0.07 0.74 0.64 94 1018.2
20260904210403 69 287 3.0 5.0 0.11 0.74 0.64 94 1018.2
20260904210044 68 305 2.0 4.0 0.16 0.74 0.64 95 1019.0
20260904205903 69 280 2.0 3.0 0.20 0.74 0.64 94 1018.3
20260904205403 69 314 3.0 5.0 0.54 0.74 0.64 93 1018.1
20260904204903 69 209 1.0 3.0 0.54 0.74 0.64 93 1018.2
20260904204534 68 211 1.0 4.0 0.54 0.74 0.64 94 1019.3
20260904203903 69 213 2.0 5.0 0.53 0.73 0.63 93 1019.0
20260904203403 69 128 2.0 5.0 0.53 0.73 0.63 92 1019.2
20260904203036 69 135 3.0 8.0 0.52 0.73 0.63 94 1020.0
20260904202903 70 142 5.0 6.0 0.52 0.72 0.62 92 1019.4
20260904202403 70 104 3.0 8.0 0.52 0.72 0.62 91 1019.5
20260904201519 70 251 2.0 10.0 0.50 0.70 0.60 91 1020.4
20260904201402 71 256 3.0 10.0 0.49 0.69 0.59 89 1019.6
20260904200903 71 276 1.0 12.0 0.47 0.67 0.57 89 1019.6
20260904200403 72 23 9.0 14.0 0.43 0.63 0.53 88 1019.7
20260904200026 72 352 7.0 40.0 0.38 0.58 0.48 88 1020.5
20260904195903 73 325 11.0 40.0 0.34 0.54 0.44 85 1019.9
20260904195403 79 351 21.0 40.0 0.00 0.20 0.10 74 1018.6
20260904194903 82 312 4.0 8.0 0.00 0.20 0.10 74 1017.9
20260904194526 82 301 4.0 9.0 0.00 0.20 0.10 74 1018.5
20260904194403 82 312 5.0 9.0 0.00 0.20 0.10 73 1017.5
20260904193903 83 319 6.0 9.0 0.00 0.20 0.10 72 1017.5
20260904193403 83 317 3.0 8.0 0.00 0.20 0.10 71 1017.1
20260904193031 83 5 5.0 10.0 0.00 0.20 0.10 71 1017.7
20260904192902 84 324 6.0 10.0 0.00 0.20 0.10 70 1016.6
20260904192403 84 311 3.0 8.0 0.00 0.20 0.10 68 1017.0
20260904191903 84 296 4.0 8.0 0.00 0.20 0.10 68 1017.0
20260904191533 84 310 4.0 15.0 0.00 0.20 0.10 69 1017.7
20260904190903 85 344 7.0 15.0 0.00 0.20 0.10 66 1017.1
20260904190403 85 325 7.0 12.0 0.00 0.20 0.10 64 1017.0
20260904190033 85 337 4.0 15.0 0.00 0.20 0.10 66 1017.6
20260904185903 86 339 9.0 12.0 0.00 0.20 0.10 63 1016.8
20260904185403 86 319 10.0 15.0 0.00 0.20 0.10 64 1016.7
20260904184902 86 321 7.0 13.0 0.00 0.20 0.10 63 1016.8
20260904184523 86 325 6.0 13.0 0.00 0.20 0.10 65 1017.4
20260904184403 86 295 7.0 9.0 0.00 0.20 0.10 63 1016.6
20260904183903 86 306 7.0 13.0 0.00 0.20 0.10 64 1016.6
20260904183403 86 336 6.0 12.0 0.00 0.20 0.10 64 1016.9
20260904183007 86 319 5.0 13.0 0.00 0.20 0.10 64 1017.6
20260904182903 86 327 8.0 13.0 0.00 0.20 0.10 64 1016.9
20260904181903 86 316 9.0 14.0 0.00 0.20 0.10 64 1017.4
20260904181521 85 314 7.0 12.0 0.00 0.20 0.10 67 1018.3
20260904181403 86 321 6.0 12.0 0.00 0.20 0.10 66 1017.4
20260904180903 85 323 7.0 12.0 0.00 0.20 0.10 66 1017.6
20260904180402 86 322 10.0 14.0 0.00 0.20 0.10 65 1017.6
20260904180018 85 294 7.0 16.0 0.00 0.20 0.10 65 1018.4
20260904175403 86 312 6.0 16.0 0.00 0.20 0.10 65 1017.8
20260904174903 86 322 10.0 15.0 0.00 0.20 0.10 63 1017.8
20260904174521 86 283 6.0 12.0 0.00 0.20 0.10 69 1018.6
20260904174403 86 305 6.0 12.0 0.00 0.20 0.10 65 1017.9
20260904173903 85 327 7.0 12.0 0.00 0.20 0.10 68 1018.0
20260904173403 85 318 8.0 12.0 0.00 0.20 0.10 67 1018.0
20260904173045 84 22 6.0 17.0 0.00 0.20 0.10 71 1018.8
20260904172903 85 322 9.0 13.0 0.00 0.20 0.10 67 1018.1
20260904172403 84 343 8.0 18.0 0.00 0.20 0.10 68 1018.0
20260904171903 84 319 7.0 12.0 0.00 0.20 0.10 69 1018.1
20260904171512 84 339 5.0 12.0 0.00 0.20 0.10 70 1018.9
20260904171403 84 339 5.0 12.0 0.00 0.20 0.10 68 1018.3
20260904170903 84 6 6.0 12.0 0.00 0.20 0.10 70 1018.3
20260904170403 83 298 6.0 10.0 0.00 0.20 0.10 68 1018.2
20260904170012 83 285 8.0 15.0 0.00 0.20 0.10 69 1019.2
20260904165403 85 297 3.0 7.0 0.00 0.20 0.10 69 1018.3
20260904164903 85 286 6.0 10.0 0.00 0.20 0.10 68 1018.3
20260904164520 85 325 4.0 13.0 0.00 0.20 0.10 69 1019.3
20260904164403 85 296 4.0 10.0 0.00 0.20 0.10 69 1018.5
20260904163903 85 305 8.0 13.0 0.00 0.20 0.10 70 1018.5
20260904163403 85 281 7.0 13.0 0.00 0.20 0.10 69 1018.6
20260904163026 85 325 7.0 10.0 0.00 0.20 0.10 71 1019.5
20260904162903 85 258 6.0 10.0 0.00 0.20 0.10 70 1018.7
20260904162403 85 248 6.0 10.0 0.00 0.20 0.10 70 1018.7
20260904161903 84 308 5.0 8.0 0.00 0.20 0.10 71 1018.7
20260904161530 84 285 1.0 11.0 0.00 0.20 0.10 72 1019.6
20260904161403 84 280 4.0 8.0 0.00 0.20 0.10 71 1018.8
20260904160903 84 347 7.0 12.0 0.00 0.20 0.10 72 1018.9
20260904160403 84 10 2.0 9.0 0.00 0.20 0.10 72 1018.8
20260904160014 84 295 6.0 10.0 0.00 0.20 0.10 72 1019.6
20260904155903 84 327 6.0 10.0 0.00 0.20 0.10 72 1018.7
20260904155403 84 250 6.0 8.0 0.00 0.20 0.10 71 1018.8
20260904154903 83 38 2.0 6.0 0.00 0.20 0.10 72 1018.8
20260904154516 83 308 4.0 11.0 0.00 0.20 0.10 72 1019.6
20260904154403 83 311 3.0 8.0 0.00 0.20 0.10 72 1018.7
20260904153403 84 338 5.0 9.0 0.00 0.20 0.10 74 1018.7
20260904153025 83 19 2.0 12.0 0.00 0.20 0.10 76 1019.6
20260904152403 83 326 7.0 12.0 0.00 0.20 0.10 73 1018.7
20260904151903 83 298 3.0 9.0 0.00 0.20 0.10 75 1018.7
20260904151528 82 316 5.0 9.0 0.00 0.20 0.10 76 1019.5
20260904151403 83 334 5.0 7.0 0.00 0.20 0.10 73 1018.7
20260904150903 83 286 5.0 9.0 0.00 0.20 0.10 75 1018.7
20260904150403 82 299 3.0 7.0 0.00 0.20 0.10 76 1018.7
20260904150035 81 23 2.0 8.0 0.00 0.20 0.10 81 1019.6
20260904145903 81 15 5.0 8.0 0.00 0.20 0.10 78 1018.8
20260904145403 80 168 2.0 3.0 0.00 0.20 0.10 84 1018.8
20260904144903 79 51 2.0 6.0 0.00 0.20 0.10 84 1018.9
20260904144513 78 136 2.0 6.0 0.00 0.20 0.10 87 1019.7
20260904144403 78 93 4.0 5.0 0.00 0.20 0.10 86 1018.9
20260904143903 78 151 5.0 6.0 0.00 0.20 0.10 87 1019.0
20260904143403 77 143 2.0 6.0 0.00 0.20 0.10 88 1019.0
20260904143019 76 123 1.0 4.0 0.00 0.20 0.10 91 1019.8
20260904142903 76 91 2.0 3.0 0.00 0.20 0.10 89 1019.0
20260904142403 76 93 2.0 5.0 0.00 0.20 0.10 90 1019.1
20260904141903 75 116 1.0 5.0 0.00 0.20 0.10 91 1019.2
20260904141524 74 131 2.0 6.0 0.00 0.20 0.10 92 1020.0
20260904141403 75 123 3.0 5.0 0.00 0.20 0.10 91 1019.2
20260904140903 75 107 4.0 6.0 0.00 0.20 0.10 92 1019.1
20260904140403 74 76 3.0 5.0 0.00 0.20 0.10 94 1019.2
20260904140036 73 67 2.0 4.0 0.00 0.20 0.10 95 1019.9
20260904135903 74 53 2.0 5.0 0.00 0.20 0.10 94 1019.1
20260904135403 73 60 0.0 1.0 0.00 0.20 0.10 96 1019.2
20260904134903 72 109 1.0 2.0 0.00 0.20 0.10 96 1019.1
20260904134536 71 304 0.0 3.0 0.00 0.20 0.10 98 1020.0
20260904134403 72 304 1.0 2.0 0.00 0.20 0.10 98 1019.2
20260904133903 71 214 1.0 3.0 0.00 0.20 0.10 99 1019.4
20260904133403 71 311 1.0 3.0 0.00 0.20 0.10 100 1019.2
20260904133017 70 311 0.0 3.0 0.00 0.20 0.10 98 1020.0
20260904132903 70 311 1.0 3.0 0.00 0.20 0.10 96 1019.3
20260904132403 70 311 2.0 3.0 0.00 0.20 0.10 96 1019.3
20260904131903 70 317 2.0 5.0 0.00 0.20 0.10 100 1019.4
20260904131520 69 263 1.0 4.0 0.00 0.20 0.10 98 1020.1
20260904131403 70 305 2.0 5.0 0.00 0.20 0.10 96 1019.4
20260904130903 70 318 2.0 5.0 0.00 0.20 0.10 99 1019.5
20260904130403 70 309 2.0 5.0 0.00 0.20 0.10 100 1019.6
20260904130031 69 310 2.0 4.0 0.00 0.20 0.10 99 1020.2
20260904125903 69 302 3.0 5.0 0.00 0.20 0.10 100 1019.7
20260904125403 69 244 2.0 3.0 0.00 0.20 0.10 100 1019.7
20260904124903 69 293 1.0 2.0 0.00 0.20 0.10 100 1019.7
20260904124530 68 302 0.0 0.0 0.00 0.20 0.10 99 1020.3
20260904124404 69 150 0.0 0.0 0.00 0.20 0.10 100 1019.8
20260904123903 68 150 0.0 0.0 0.00 0.20 0.10 100 1019.7
20260904123403 68 96 0.0 1.0 0.00 0.20 0.10 100 1019.8
20260904123034 68 96 0.0 2.0 0.00 0.20 0.10 99 1020.5
20260904122903 68 96 0.0 1.0 0.00 0.20 0.10 100 1019.6
20260904122403 68 96 1.0 5.0 0.00 0.20 0.10 100 1019.6
20260904121517 67 126 1.0 5.0 0.00 0.20 0.10 99 1020.3
20260904121403 68 101 2.0 5.0 0.00 0.20 0.10 100 1019.6
20260904120903 68 95 2.0 5.0 0.00 0.20 0.10 100 1019.6
20260904120403 67 179 3.0 5.0 0.00 0.20 0.10 100 1019.6
20260904120026 67 130 3.0 8.0 0.00 0.20 0.10 99 1020.3
20260904115903 67 110 5.0 6.0 0.00 0.20 0.10 100 1019.4
20260904114903 66 124 5.0 8.0 0.00 0.20 0.10 100 1019.2
20260904114530 66 98 0.0 4.0 0.00 0.20 0.10 98 1020.0
20260904114403 66 5 0.0 0.0 0.00 0.20 0.10 100 1019.1
20260904113902 66 319 0.0 0.0 0.00 0.20 0.10 100 1019.0
20260904113403 66 319 0.0 0.0 0.00 0.20 0.10 100 1018.9
20260904113030 66 319 0.0 0.0 0.00 0.20 0.10 98 1019.7
20260904112903 66 319 0.0 0.0 0.00 0.20 0.10 100 1018.9
20260904112403 66 319 0.0 0.0 0.00 0.20 0.10 100 1019.0
20260904111903 66 319 0.0 0.0 0.00 0.20 0.10 100 1018.9
20260904111533 66 259 0.0 1.0 0.00 0.20 0.10 98 1019.8
20260904111403 66 259 0.0 0.0 0.00 0.20 0.10 100 1019.0
20260904110903 66 259 0.0 1.0 0.00 0.20 0.10 100 1019.0
20260904110403 66 259 1.0 2.0 0.00 0.20 0.10 100 1019.0
20260904110022 66 333 0.0 0.0 0.00 0.20 0.10 98 1019.8
20260904104528 66 333 0.0 0.0 0.01 0.20 0.10 98 1019.7
20260904104403 66 333 0.0 0.0 0.01 0.20 0.10 100 1018.7
20260904103904 66 333 0.0 0.0 0.01 0.20 0.10 100 1018.7
20260904103403 66 333 0.0 0.0 0.01 0.20 0.10 97 1018.5
20260904103028 66 333 0.0 0.0 0.01 0.20 0.10 98 1019.5
20260904102903 66 333 0.0 0.0 0.01 0.20 0.10 96 1018.5
20260904102403 66 333 0.0 2.0 0.01 0.20 0.10 96 1018.6
20260904101903 66 335 1.0 3.0 0.01 0.20 0.10 97 1018.6
20260904101534 66 268 0.0 0.0 0.01 0.20 0.10 98 1019.5
20260904101403 66 268 0.0 0.0 0.01 0.20 0.10 100 1018.7
20260904100403 66 268 0.0 0.0 0.01 0.20 0.10 96 1018.7
20260904100036 66 268 0.0 0.0 0.01 0.20 0.10 98 1019.5
20260904095903 66 268 0.0 0.0 0.01 0.20 0.10 96 1018.7
20260904094903 66 268 0.0 1.0 0.00 0.19 0.09 98 1018.6
20260904094525 66 268 0.0 1.0 0.00 0.19 0.09 98 1019.6
20260904094403 66 268 0.0 1.0 0.00 0.19 0.09 99 1018.6
20260904093903 66 268 0.0 0.0 0.00 0.19 0.09 100 1018.5
20260904093027 66 268 0.0 3.0 0.00 0.19 0.09 98 1019.4
20260904092903 67 268 1.0 2.0 0.00 0.19 0.09 100 1018.4
20260904092403 67 277 1.0 3.0 0.00 0.19 0.09 100 1018.4
20260904091528 66 277 1.0 3.0 0.00 0.19 0.09 98 1019.4
20260904091403 66 315 2.0 3.0 0.00 0.19 0.09 96 1018.5
20260904090403 67 300 1.0 3.0 0.00 0.19 0.09 96 1018.4
20260904090016 66 300 0.0 2.0 0.00 0.19 0.09 98 1019.2
20260904085904 67 300 1.0 2.0 0.00 0.19 0.09 96 1018.4
20260904084903 67 300 0.0 0.0 0.00 0.19 0.09 96 1018.4
20260904084521 66 300 0.0 2.0 0.00 0.19 0.09 98 1019.1
20260904084403 67 300 1.0 2.0 0.00 0.19 0.09 96 1018.5
20260904083403 67 300 1.0 2.0 0.00 0.19 0.09 96 1018.4
20260904083031 67 300 0.0 1.0 0.00 0.19 0.09 98 1019.1
20260904082903 67 300 0.0 1.0 0.00 0.19 0.09 96 1018.4
20260904082403 67 300 0.0 2.0 0.00 0.19 0.09 96 1018.4
20260904081903 67 300 1.0 2.0 0.00 0.19 0.09 96 1018.5
20260904081532 67 300 0.0 2.0 0.00 0.19 0.09 98 1019.2
20260904081403 67 300 0.0 2.0 0.00 0.19 0.09 96 1018.5
20260904080904 67 300 0.0 2.0 0.00 0.19 0.09 96 1018.4
20260904080403 67 241 1.0 3.0 0.00 0.19 0.09 96 1018.4
20260904080016 67 241 1.0 3.0 0.00 0.19 0.09 98 1019.1
20260904075903 67 288 1.0 2.0 0.00 0.19 0.09 96 1018.4
20260904075403 67 298 2.0 3.0 0.00 0.19 0.09 96 1018.2
20260904074903 68 281 1.0 2.0 0.00 0.19 0.09 96 1018.2
20260904074537 67 255 0.0 2.0 0.00 0.19 0.09 98 1018.8
20260904074403 68 255 0.0 1.0 0.00 0.19 0.09 96 1018.1
20260904073903 68 255 1.0 2.0 0.00 0.19 0.09 96 1018.2
20260904073402 68 306 1.0 2.0 0.00 0.19 0.09 96 1018.2
20260904073029 67 201 0.0 2.0 0.00 0.19 0.09 98 1018.8
20260904072403 68 201 0.0 2.0 0.00 0.19 0.09 96 1018.1
20260904071903 68 264 0.0 2.0 0.00 0.19 0.09 96 1018.1
20260904071541 68 264 0.0 2.0 0.00 0.19 0.09 98 1018.8
20260904071403 68 294 1.0 2.0 0.00 0.19 0.09 96 1018.0
20260904070403 68 249 1.0 3.0 0.00 0.19 0.09 96 1017.9
20260904070033 68 249 1.0 3.0 0.00 0.19 0.09 98 1018.6
20260904065903 68 245 2.0 3.0 0.00 0.19 0.09 96 1018.0
20260904065403 68 304 1.0 2.0 0.00 0.19 0.09 96 1017.9
20260904064904 68 304 2.0 3.0 0.00 0.19 0.09 96 1017.8
20260904064519 68 304 2.0 3.0 0.00 0.19 0.09 97 1018.5
20260904064403 68 293 2.0 3.0 0.00 0.19 0.09 96 1017.7
20260904063903 68 265 1.0 3.0 0.00 0.19 0.09 96 1018.0
20260904063403 68 309 0.0 0.0 0.00 0.19 0.09 96 1018.0
20260904063006 68 309 0.0 0.0 0.00 0.19 0.09 97 1018.7
20260904062904 68 309 0.0 0.0 0.00 0.19 0.09 96 1018.1
20260904062403 69 309 0.0 0.0 0.00 0.19 0.09 96 1018.1
20260904061903 69 309 0.0 0.0 0.00 0.19 0.09 95 1018.2
20260904061503 68 309 0.0 1.0 0.00 0.19 0.09 97 1018.9
20260904061403 69 309 0.0 1.0 0.00 0.19 0.09 95 1018.3
20260904060903 69 309 0.0 1.0 0.00 0.19 0.09 95 1018.4
20260904060403 69 309 0.0 1.0 0.00 0.19 0.09 95 1018.3
20260904060008 68 309 0.0 1.0 0.00 0.19 0.09 97 1019.1
20260904055904 69 309 0.0 1.0 0.00 0.19 0.09 96 1018.5
20260904054515 69 309 0.0 4.0 0.00 0.19 0.09 97 1019.5
20260904054403 69 309 1.0 3.0 0.00 0.19 0.09 95 1018.9
20260904053903 69 300 2.0 5.0 0.00 0.19 0.09 96 1018.9
20260904053403 69 279 1.0 3.0 0.03 0.19 0.09 95 1019.2
20260904053020 69 282 1.0 3.0 0.09 0.19 0.09 97 1020.0
20260904052903 69 299 1.0 2.0 0.09 0.19 0.09 95 1019.3
20260904051903 69 279 1.0 3.0 0.09 0.19 0.09 95 1019.4
20260904051504 69 298 1.0 4.0 0.09 0.19 0.09 96 1020.2
20260904051404 69 300 3.0 5.0 0.09 0.19 0.09 95 1019.5
20260904050903 69 259 1.0 3.0 0.09 0.19 0.09 94 1019.5
20260904050404 69 316 1.0 2.0 0.09 0.19 0.09 94 1019.7
20260904050006 69 24 0.0 3.0 0.09 0.19 0.09 95 1020.5
20260904045903 69 24 1.0 2.0 0.09 0.19 0.09 94 1019.6
20260904045403 70 136 2.0 3.0 0.09 0.19 0.09 94 1019.6
20260904044904 70 163 1.0 6.0 0.00 0.19 0.09 93 1019.6
20260904044514 69 123 3.0 10.0 0.19 0.19 0.09 95 1020.4
20260904043403 71 72 3.0 6.0 0.06 0.16 0.06 92 1020.3
20260904043018 70 360 3.0 9.0 0.10 0.10 0.00 94 1020.8
20260904042403 71 121 6.0 9.0 0.00 0.10 0.00 92 1019.8
20260904041525 71 134 5.0 11.0 0.10 0.10 0.00 94 1020.5
20260904041403 71 104 6.0 10.0 0.00 0.10 0.00 93 1019.8
20260904040903 72 112 6.0 9.0 0.00 0.10 0.00 94 1019.7
20260904040403 72 134 6.0 10.0 0.00 0.10 0.00 95 1019.7
20260904040005 71 113 5.0 9.0 0.10 0.10 0.00 97 1020.6
20260904035403 71 322 0.0 3.0 0.10 0.10 0.10 95 1019.4
20260904034903 71 322 2.0 5.0 0.09 0.09 0.09 94 1019.4
20260904034510 71 315 3.0 4.0 0.00 0.00 0.00 96 1020.1
20260904034403 71 305 3.0 5.0 0.00 0.00 0.00 94 1019.2
20260904033903 71 322 0.0 2.0 0.00 0.00 0.00 94 1019.2
20260904033403 71 322 0.0 0.0 0.00 0.00 0.00 94 1019.2
20260904033015 71 322 0.0 3.0 0.00 0.00 0.00 96 1020.1
20260904032904 71 322 0.0 2.0 0.00 0.00 0.00 94 1019.2
20260904032403 71 322 2.0 3.0 0.00 0.00 0.00 94 1019.1
20260904031519 71 321 1.0 2.0 0.00 0.00 0.00 95 1019.7
20260904031403 71 275 0.0 2.0 0.00 0.00 0.00 94 1019.0
20260904030403 72 274 1.0 2.0 0.00 0.00 0.00 94 1019.4
20260904030036 71 274 0.0 2.0 0.00 0.00 0.00 95 1020.1
20260904024904 72 274 0.0 1.0 0.00 0.00 0.00 94 1019.4
20260904024530 71 274 0.0 3.0 0.00 0.00 0.00 95 1020.1
20260904024403 72 274 0.0 1.0 0.00 0.00 0.00 94 1019.2
20260904023903 72 295 1.0 3.0 0.00 0.00 0.00 93 1019.4
20260904023403 72 291 2.0 3.0 0.00 0.00 0.00 93 1019.2
20260904023012 71 301 2.0 4.0 0.00 0.00 0.00 95 1020.0
20260904022903 72 309 3.0 5.0 0.00 0.00 0.00 93 1019.2
20260904022403 72 314 2.0 3.0 0.00 0.00 0.00 93 1019.1
20260904021903 72 301 1.0 2.0 0.00 0.00 0.00 93 1019.2
20260904021530 72 294 0.0 2.0 0.00 0.00 0.00 94 1020.0
20260904020903 72 261 1.0 2.0 0.00 0.00 0.00 93 1019.2
20260904020027 72 261 0.0 3.0 0.00 0.00 0.00 94 1019.8
20260904015903 72 261 0.0 3.0 0.00 0.00 0.00 93 1019.2
20260904014904 73 262 1.0 3.0 0.00 0.00 0.00 92 1019.1
20260904014528 72 302 0.0 3.0 0.00 0.00 0.00 94 1019.9
20260904014403 73 302 1.0 2.0 0.00 0.00 0.00 92 1019.2
20260904013903 73 302 1.0 3.0 0.00 0.00 0.00 92 1018.9
20260904013403 73 302 1.0 3.0 0.00 0.00 0.00 92 1018.9
20260904013031 73 302 1.0 3.0 0.00 0.00 0.00 93 1019.6
20260904012903 73 302 1.0 3.0 0.00 0.00 0.00 91 1018.8
20260904012403 73 302 1.0 3.0 0.00 0.00 0.00 91 1018.6
20260904011903 74 302 2.0 3.0 0.00 0.00 0.00 91 1018.5
20260904011514 73 302 2.0 3.0 0.00 0.00 0.00 92 1019.4
20260904010903 74 302 1.0 2.0 0.00 0.00 0.00 90 1018.5
20260904010021 74 302 1.0 3.0 0.00 0.00 0.00 90 1019.4
20260904005903 75 302 1.0 3.0 0.00 0.00 0.00 89 1018.5
20260904005403 75 302 2.0 3.0 0.00 0.00 0.00 88 1018.4
20260904004903 75 302 2.0 5.0 0.00 0.00 0.00 87 1018.4
20260904004529 75 263 2.0 7.0 0.00 0.00 0.00 89 1019.3
20260904004403 75 259 2.0 7.0 0.00 0.00 0.00 87 1018.5
20260904003404 76 296 1.0 3.0 0.00 0.00 0.00 87 1018.5
20260904003031 75 298 0.0 3.0 0.00 0.00 0.00 89 1019.3
20260904002404 76 259 1.0 3.0 0.00 0.00 0.00 87 1018.6
20260904001903 76 272 1.0 3.0 0.00 0.00 0.00 87 1018.6
20260904001537 76 290 1.0 4.0 0.00 0.00 0.00 88 1019.2
20260904001404 76 301 2.0 5.0 0.00 0.00 0.00 86 1018.6
20260904000903 77 313 2.0 5.0 0.00 0.00 0.00 85 1018.6
20260904000403 77 306 2.0 5.0 0.00 0.00 0.00 85 1018.7
20260904000019 77 304 2.0 5.0 0.00 0.00 0.00 86 1019.4
20260903235903 77 272 3.0 5.0 0.00 0.00 0.00 85 1018.7
20260903235403 77 284 4.0 6.0 0.00 0.00 0.00 84 1018.7
20260903234903 78 303 3.0 3.0 0.00 0.00 0.00 84 1018.6
20260903234524 77 295 2.0 4.0 0.00 0.00 0.00 85 1019.3